Time,TemperatureF,DewpointF,PressureIn,WindDirection,WindDirectionDegrees,WindSpeedMPH,WindSpeedGustMPH,Humidity,HourlyPrecipIn,Conditions,Clouds,dailyrainin,SoftwareType,DateUTC
2013-12-29 00:00:00,46.8,45.0,30.03,North,350,11.0,-999.0,92,-99.99,,,0.00,weatherlink.com 1.10,2013-12-28 22:00:00,
2013-12-29 00:15:00,46.8,45.0,30.03,North,5,12.0,-999.0,92,-99.99,,,0.00,weatherlink.com 1.10,2013-12-28 22:15:00,
2013-12-29 00:30:00,46.8,44.0,30.03,NNE,12,12.0,-999.0,91,-99.99,,,0.00,weatherlink.com 1.10,2013-12-28 22:30:00,
2013-12-29 00:45:00,46.9,45.0,30.03,North,351,21.0,-999.0,91,-99.99,,,0.00,weatherlink.com 1.10,2013-12-28 22:45:00,
2013-12-29 01:00:00,46.9,45.0,30.03,NNW,343,8.0,-999.0,91,-99.99,,,0.00,weatherlink.com 1.10,2013-12-28 23:00:00,
2013-12-29 01:15:00,46.9,45.0,30.03,NW,325,15.0,-999.0,91,-99.99,,,0.00,weatherlink.com 1.10,2013-12-28 23:15:00,
2013-12-29 01:30:00,46.9,45.0,30.03,North,355,20.0,-999.0,91,-99.99,,,0.00,weatherlink.com 1.10,2013-12-28 23:30:00,
2013-12-29 01:45:00,46.9,45.0,30.04,NNE,24,17.0,-999.0,91,-99.99,,,0.00,weatherlink.com 1.10,2013-12-28 23:45:00,
2013-12-29 02:00:00,47.0,45.0,30.05,North,360,18.0,-999.0,91,-99.99,,,0.00,weatherlink.com 1.10,2013-12-29 00:00:00,
2013-12-29 02:15:00,47.0,45.0,30.05,NNE,31,13.0,-999.0,91,-99.99,,,0.00,weatherlink.com 1.10,2013-12-29 00:15:00,
2013-12-29 02:30:00,47.0,45.0,30.06,NNW,343,8.0,-999.0,91,-99.99,,,0.00,weatherlink.com 1.10,2013-12-29 00:30:00,
2013-12-29 02:45:00,47.2,45.0,30.06,North,355,11.0,-999.0,91,-99.99,,,0.00,weatherlink.com 1.10,2013-12-29 00:45:00,
2013-12-29 03:00:00,47.2,45.0,30.07,NNW,332,14.0,-999.0,91,-99.99,,,0.00,weatherlink.com 1.10,2013-12-29 01:00:00,
2013-12-29 03:15:00,47.3,45.0,30.07,NW,318,8.0,-999.0,90,-99.99,,,0.00,weatherlink.com 1.10,2013-12-29 01:15:00,
2013-12-29 03:30:00,47.4,45.0,30.07,North,360,8.0,-999.0,90,-99.99,,,0.00,weatherlink.com 1.10,2013-12-29 01:30:00,
2013-12-29 03:45:00,47.5,45.0,30.07,North,355,11.0,-999.0,90,-99.99,,,0.00,weatherlink.com 1.10,2013-12-29 01:45:00,
2013-12-29 04:00:00,47.5,45.0,30.06,NNW,345,15.0,-999.0,90,-99.99,,,0.00,weatherlink.com 1.10,2013-12-29 02:00:00,
2013-12-29 04:15:00,47.5,45.0,30.06,NNW,347,15.0,-999.0,90,-99.99,,,0.00,weatherlink.com 1.10,2013-12-29 02:15:00,
2013-12-29 04:30:00,47.5,45.0,30.06,North,350,9.0,-999.0,90,-99.99,,,0.00,weatherlink.com 1.10,2013-12-29 02:30:00,
2013-12-29 04:45:00,47.5,45.0,30.06,NNW,346,11.0,-999.0,90,-99.99,,,0.00,weatherlink.com 1.10,2013-12-29 02:45:00,
2013-12-29 05:00:00,47.6,45.0,30.06,NNW,338,10.0,-999.0,90,-99.99,,,0.00,weatherlink.com 1.10,2013-12-29 03:00:00,
2013-12-29 05:15:00,47.5,45.0,30.06,NNW,347,13.0,-999.0,90,-99.99,,,0.00,weatherlink.com 1.10,2013-12-29 03:15:00,
2013-12-29 05:30:00,47.5,45.0,30.06,North,355,17.0,-999.0,90,-99.99,,,0.00,weatherlink.com 1.10,2013-12-29 03:30:00,
2013-12-29 05:45:00,47.5,45.0,30.07,NNW,344,10.0,-999.0,90,-99.99,,,0.00,weatherlink.com 1.10,2013-12-29 03:45:00,
2013-12-29 06:00:00,47.5,45.0,30.07,North,350,7.0,-999.0,90,-99.99,,,0.00,weatherlink.com 1.10,2013-12-29 04:00:00,
2013-12-29 06:15:00,47.4,44.0,30.08,NW,324,11.0,-999.0,89,-99.99,,,0.00,weatherlink.com 1.10,2013-12-29 04:15:00,
2013-12-29 06:30:00,47.5,45.0,30.09,North,355,16.0,-999.0,89,-99.99,,,0.00,weatherlink.com 1.10,2013-12-29 04:30:00,
2013-12-29 06:45:00,47.6,45.0,30.10,North,355,12.0,-999.0,89,-99.99,,,0.00,weatherlink.com 1.10,2013-12-29 04:45:00,
2013-12-29 07:00:00,47.5,45.0,30.09,North,355,13.0,-999.0,90,-99.99,,,0.00,weatherlink.com 1.10,2013-12-29 05:00:00,
2013-12-29 07:15:00,47.6,45.0,30.09,North,355,16.0,-999.0,90,-99.99,,,0.00,weatherlink.com 1.10,2013-12-29 05:15:00,
2013-12-29 07:30:00,47.5,45.0,30.08,WNW,300,16.0,-999.0,90,-99.99,,,0.00,weatherlink.com 1.10,2013-12-29 05:30:00,
2013-12-29 07:46:00,47.3,45.0,30.08,North,351,12.0,-999.0,90,-99.99,,,0.00,weatherlink.com 1.10,2013-12-29 05:46:00,
2013-12-29 08:00:00,47.3,45.0,30.09,NNW,346,9.0,-999.0,90,-99.99,,,0.00,weatherlink.com 1.10,2013-12-29 06:00:00,
2013-12-29 08:15:00,47.4,45.0,30.11,North,355,9.0,-999.0,90,-99.99,,,0.00,weatherlink.com 1.10,2013-12-29 06:15:00,
2013-12-29 08:30:00,47.6,45.0,30.11,North,355,11.0,-999.0,90,-99.99,,,0.00,weatherlink.com 1.10,2013-12-29 06:30:00,
2013-12-29 08:45:00,48.0,45.0,30.12,North,5,15.0,-999.0,89,-99.99,,,0.00,weatherlink.com 1.10,2013-12-29 06:45:00,
2013-12-29 09:01:00,48.3,45.0,30.11,North,5,13.0,-999.0,88,-99.99,,,0.00,weatherlink.com 1.10,2013-12-29 07:01:00,
2013-12-29 09:16:00,48.4,45.0,30.10,NNW,336,18.0,-999.0,87,-99.99,,,0.00,weatherlink.com 1.10,2013-12-29 07:16:00,
2013-12-29 09:31:00,48.5,45.0,30.12,NNW,348,8.0,-999.0,88,-99.99,,,0.00,weatherlink.com 1.10,2013-12-29 07:31:00,
2013-12-29 09:46:00,48.9,45.0,30.13,NNW,337,11.0,-999.0,87,-99.99,,,0.00,weatherlink.com 1.10,2013-12-29 07:46:00,
2013-12-29 10:01:00,49.3,46.0,30.14,NNE,24,13.0,-999.0,87,-99.99,,,0.00,weatherlink.com 1.10,2013-12-29 08:01:00,
2013-12-29 10:16:00,49.3,46.0,30.14,NNW,330,9.0,-999.0,87,-99.99,,,0.00,weatherlink.com 1.10,2013-12-29 08:16:00,
2013-12-29 10:31:00,49.2,46.0,30.14,NNW,346,9.0,-999.0,87,-99.99,,,0.00,weatherlink.com 1.10,2013-12-29 08:31:00,
2013-12-29 10:46:00,49.2,46.0,30.14,NNW,329,8.0,-999.0,87,-99.99,,,0.00,weatherlink.com 1.10,2013-12-29 08:46:00,
2013-12-29 11:01:00,49.4,46.0,30.13,North,355,7.0,-999.0,87,-99.99,,,0.00,weatherlink.com 1.10,2013-12-29 09:01:00,
2013-12-29 11:16:00,49.5,46.0,30.12,NNW,344,9.0,-999.0,87,-99.99,,,0.00,weatherlink.com 1.10,2013-12-29 09:16:00,
2013-12-29 11:31:00,49.7,46.0,30.12,NNW,344,9.0,-999.0,87,-99.99,,,0.00,weatherlink.com 1.10,2013-12-29 09:31:00,
2013-12-29 11:46:00,49.7,46.0,30.12,NNW,328,8.0,-999.0,86,-99.99,,,0.00,weatherlink.com 1.10,2013-12-29 09:46:00,
2013-12-29 12:01:00,49.9,46.0,30.12,NNW,341,13.0,-999.0,86,-99.99,,,0.00,weatherlink.com 1.10,2013-12-29 10:01:00,
2013-12-29 12:16:00,49.3,45.0,30.12,NNE,19,13.0,-999.0,86,-99.99,,,0.00,weatherlink.com 1.10,2013-12-29 10:16:00,
2013-12-29 12:31:00,49.5,46.0,30.13,North,355,6.0,-999.0,86,-99.99,,,0.00,weatherlink.com 1.10,2013-12-29 10:31:00,
2013-12-29 12:46:00,50.1,46.0,30.13,North,355,6.0,-999.0,85,-99.99,,,0.00,weatherlink.com 1.10,2013-12-29 10:46:00,
2013-12-29 13:01:00,50.1,46.0,30.12,North,360,9.0,-999.0,85,-99.99,,,0.00,weatherlink.com 1.10,2013-12-29 11:01:00,
2013-12-29 13:16:00,50.3,45.0,30.12,North,351,9.0,-999.0,83,-99.99,,,0.00,weatherlink.com 1.10,2013-12-29 11:16:00,
2013-12-29 13:31:00,50.1,46.0,30.11,NW,318,8.0,-999.0,85,-99.99,,,0.00,weatherlink.com 1.10,2013-12-29 11:31:00,
2013-12-29 13:46:00,49.6,45.0,30.12,North,355,8.0,-999.0,85,-99.99,,,0.00,weatherlink.com 1.10,2013-12-29 11:46:00,
2013-12-29 14:01:00,49.8,46.0,30.12,North,5,8.0,-999.0,85,-99.99,,,0.00,weatherlink.com 1.10,2013-12-29 12:01:00,
2013-12-29 14:16:00,49.7,45.0,30.12,North,355,16.0,-999.0,84,-99.99,,,0.00,weatherlink.com 1.10,2013-12-29 12:16:00,
2013-12-29 14:31:00,49.3,45.0,30.12,North,355,13.0,-999.0,84,-99.99,,,0.00,weatherlink.com 1.10,2013-12-29 12:31:00,
2013-12-29 14:46:00,48.7,44.0,30.12,North,355,12.0,-999.0,84,-99.99,,,0.00,weatherlink.com 1.10,2013-12-29 12:46:00,
2013-12-29 15:01:00,48.3,44.0,30.12,North,5,12.0,-999.0,86,-99.99,,,0.00,weatherlink.com 1.10,2013-12-29 13:01:00,
2013-12-29 15:16:00,48.0,44.0,30.13,North,355,16.0,-999.0,86,-99.99,,,0.00,weatherlink.com 1.10,2013-12-29 13:16:00,
2013-12-29 15:31:00,47.8,44.0,30.13,North,350,17.0,-999.0,87,-99.99,,,0.00,weatherlink.com 1.10,2013-12-29 13:31:00,
2013-12-29 15:46:00,47.7,44.0,30.14,North,355,8.0,-999.0,87,-99.99,,,0.00,weatherlink.com 1.10,2013-12-29 13:46:00,
2013-12-29 16:01:00,47.6,44.0,30.14,NNW,344,7.0,-999.0,87,-99.99,,,0.00,weatherlink.com 1.10,2013-12-29 14:01:00,
2013-12-29 16:16:00,47.3,44.0,30.14,North,350,11.0,-999.0,88,-99.99,,,0.00,weatherlink.com 1.10,2013-12-29 14:16:00,
2013-12-29 16:31:00,47.1,44.0,30.14,NNW,345,10.0,-999.0,88,-99.99,,,0.00,weatherlink.com 1.10,2013-12-29 14:31:00,
2013-12-29 16:46:00,46.8,44.0,30.15,NNW,329,14.0,-999.0,88,-99.99,,,0.00,weatherlink.com 1.10,2013-12-29 14:46:00,
2013-12-29 17:01:00,46.6,43.0,30.15,North,355,9.0,-999.0,88,-99.99,,,0.00,weatherlink.com 1.10,2013-12-29 15:01:00,
2013-12-29 17:16:00,46.3,43.0,30.16,North,350,9.0,-999.0,89,-99.99,,,0.00,weatherlink.com 1.10,2013-12-29 15:16:00,
2013-12-29 17:31:00,46.2,43.0,30.16,North,360,7.0,-999.0,89,-99.99,,,0.00,weatherlink.com 1.10,2013-12-29 15:31:00,
2013-12-29 17:46:00,46.0,43.0,30.16,North,10,12.0,-999.0,89,-99.99,,,0.00,weatherlink.com 1.10,2013-12-29 15:46:00,
2013-12-29 18:01:00,46.0,43.0,30.17,NNW,347,11.0,-999.0,89,-99.99,,,0.00,weatherlink.com 1.10,2013-12-29 16:01:00,
2013-12-29 18:16:00,46.1,43.0,30.18,NNE,19,13.0,-999.0,89,-99.99,,,0.00,weatherlink.com 1.10,2013-12-29 16:16:00,
2013-12-29 18:31:00,46.2,43.0,30.18,North,5,11.0,-999.0,89,-99.99,,,0.00,weatherlink.com 1.10,2013-12-29 16:31:00,
2013-12-29 18:46:00,46.3,43.0,30.18,North,350,8.0,-999.0,89,-99.99,,,0.00,weatherlink.com 1.10,2013-12-29 16:46:00,
2013-12-29 19:01:00,46.4,43.0,30.18,North,349,8.0,-999.0,89,-99.99,,,0.00,weatherlink.com 1.10,2013-12-29 17:01:00,
2013-12-29 19:16:00,46.4,43.0,30.18,NNW,344,8.0,-999.0,89,-99.99,,,0.00,weatherlink.com 1.10,2013-12-29 17:16:00,
2013-12-29 19:31:00,46.4,43.0,30.18,North,350,8.0,-999.0,89,-99.99,,,0.00,weatherlink.com 1.10,2013-12-29 17:31:00,
2013-12-29 19:46:00,46.4,43.0,30.18,North,349,9.0,-999.0,89,-99.99,,,0.00,weatherlink.com 1.10,2013-12-29 17:46:00,
2013-12-29 20:01:00,46.4,43.0,30.19,NNW,346,14.0,-999.0,89,-99.99,,,0.00,weatherlink.com 1.10,2013-12-29 18:01:00,
2013-12-29 20:16:00,46.4,43.0,30.19,North,5,7.0,-999.0,89,-99.99,,,0.00,weatherlink.com 1.10,2013-12-29 18:16:00,
2013-12-29 20:31:00,46.5,44.0,30.20,North,360,10.0,-999.0,89,-99.99,,,0.00,weatherlink.com 1.10,2013-12-29 18:31:00,
2013-12-29 20:46:00,46.6,44.0,30.20,NNW,348,4.0,-999.0,89,-99.99,,,0.00,weatherlink.com 1.10,2013-12-29 18:46:00,
2013-12-29 21:01:00,46.4,43.0,30.19,North,355,4.0,-999.0,89,-99.99,,,0.00,weatherlink.com 1.10,2013-12-29 19:01:00,
2013-12-29 21:16:00,46.3,43.0,30.19,NNW,340,8.0,-999.0,89,-99.99,,,0.00,weatherlink.com 1.10,2013-12-29 19:16:00,
2013-12-29 21:31:00,46.4,43.0,30.20,NNW,346,8.0,-999.0,89,-99.99,,,0.00,weatherlink.com 1.10,2013-12-29 19:31:00,
2013-12-29 21:46:00,46.3,43.0,30.19,NNW,343,10.0,-999.0,89,-99.99,,,0.00,weatherlink.com 1.10,2013-12-29 19:46:00,
2013-12-29 22:01:00,46.3,43.0,30.19,NNW,343,8.0,-999.0,89,-99.99,,,0.00,weatherlink.com 1.10,2013-12-29 20:01:00,
2013-12-29 22:16:00,46.3,43.0,30.19,NNW,337,5.0,-999.0,89,-99.99,,,0.00,weatherlink.com 1.10,2013-12-29 20:16:00,
2013-12-29 22:31:00,46.4,43.0,30.20,North,355,7.0,-999.0,89,-99.99,,,0.00,weatherlink.com 1.10,2013-12-29 20:31:00,
2013-12-29 22:46:00,46.5,44.0,30.19,North,11,3.0,-999.0,89,-99.99,,,0.00,weatherlink.com 1.10,2013-12-29 20:46:00,
2013-12-29 23:01:00,46.5,44.0,30.18,NNW,327,7.0,-999.0,89,-99.99,,,0.00,weatherlink.com 1.10,2013-12-29 21:01:00,
2013-12-29 23:17:00,46.6,44.0,30.19,North,350,2.0,-999.0,89,-99.99,,,0.00,weatherlink.com 1.10,2013-12-29 21:17:00,
2013-12-29 23:32:00,46.7,44.0,30.20,North,355,5.0,-999.0,90,-99.99,,,0.00,weatherlink.com 1.10,2013-12-29 21:32:00,
2013-12-29 23:47:00,46.7,44.0,30.19,North,355,6.0,-999.0,90,-99.99,,,0.00,weatherlink.com 1.10,2013-12-29 21:47:00,